Location: Poughquag
(41.6090°N, 73.6820°W)
Time: 12:41:55
(UTC-04:00)

A-11 Canister half - Pass Details

Date: 05 June 2020
Orbit: 1527 x 1682 km, 47.3° (Epoch: 06 July)

Event Time Altitude Azimuth Distance (km) Brightness Sun altitude
Rises 15:00:32 0° 290° (WNW) 4,752 11.9 57.4°
Reaches altitude 10° 15:04:56 10° 272° (W) 3,792 11.7 56.6°
Maximum altitude 15:10:37 18° 235° (SW) 3,259 11.7 55.7°
Drops below altitude 10° 15:16:25 10° 198° (SSW) 3,856 11.6 54.7°
Sets 15:21:01 0° 180° (S) 4,866 11.8 53.9°
